This is the latest recevied weather packets stored in our database for station/object VK2HN. If no packets are shown the sender has not sent any weather packets the latest 10 day(s).
| Time | Temp. | Humidity | Pressure | Rain* | Wind** | Luminosity | Snow |
|---|---|---|---|---|---|---|---|
| 1778133337 | 15.56° C | 41% | 1017 hPa | 0 mm | - | - | - |
| 1778133037 | 16.11° C | 38% | 1017 hPa | 0 mm | - | - | - |
| 1778132737 | 16.11° C | 38% | 1017.1 hPa | 0 mm | - | - | - |
| 1778132437 | 16.11° C | 39% | 1017 hPa | 0 mm | - | - | - |
| 1778132137 | 16.11° C | 38% | 1016.8 hPa | 0 mm | - | - | - |
| 1778131837 | 16.11° C | 38% | 1016.6 hPa | 0 mm | - | - | - |
| 1778131537 | 16.11° C | 39% | 1016.6 hPa | 0 mm | - | - | - |
| 1778131237 | 16.11° C | 38% | 1016.4 hPa | 0 mm | - | - | - |
| 1778130937 | 16.11° C | 36% | 1016.3 hPa | 0 mm | - | - | - |
| 1778130637 | 16.11° C | 38% | 1016.2 hPa | 0 mm | - | - | - |
| 1778130337 | 16.11° C | 37% | 1016.1 hPa | 0 mm | - | - | - |
| 1778130037 | 16.67° C | 36% | 1016.2 hPa | 0 mm | - | - | - |
| 1778129737 | 16.67° C | 36% | 1016.2 hPa | 0 mm | - | - | - |
| 1778129437 | 16.67° C | 36% | 1016.1 hPa | 0 mm | - | - | - |
| 1778129137 | 16.67° C | 36% | 1016.1 hPa | 0 mm | - | - | - |
| 1778128837 | 17.22° C | 35% | 1016 hPa | 0 mm | - | - | - |
| 1778128537 | 17.78° C | 35% | 1016 hPa | 0 mm | - | - | - |
| 1778128237 | 17.78° C | 36% | 1015.7 hPa | 0 mm | - | - | - |
| 1778127937 | 17.78° C | 35% | 1015.5 hPa | 0 mm | - | - | - |
| 1778127637 | 17.78° C | 36% | 1015.7 hPa | 0 mm | - | - | - |
| 1778127337 | 17.78° C | 33% | 1015.5 hPa | 0 mm | - | - | - |
| 1778127037 | 17.78° C | 34% | 1015.5 hPa | 0 mm | - | - | - |
| 1778126737 | 17.78° C | 32% | 1015.4 hPa | 0 mm | - | - | - |
| 1778126437 | 17.78° C | 32% | 1015.4 hPa | 0 mm | - | - | - |
| 1778126137 | 18.33° C | 31% | 1015.6 hPa | 0 mm | - | - | - |
* Rain latest hour (hover to see other rain measurements)
** Current wind speed in m/s (hover to see current wind gust speed)